Weather History for Coatesville, PA

Change the Weather History Date:

Monday, March 25, 2013

  Actual Average (KLNS) Record (KLNS)
Temperature  
Mean Temperature 34 °F -  
Max Temperature 35 °F 52 °F 75 °F (1988)
Min Temperature 32 °F 33 °F 19 °F (2014)
Degree Days  
Heating Degree Days 32    
Moisture  
Dew Point 32 °F    
Average Humidity 90    
Maximum Humidity 100    
Minimum Humidity 70    
Precipitation  
Precipitation 9.03 in - - ()
Sea Level Pressure  
Sea Level Pressure 29.57 in    
Wind  
Wind Speed 6 mph (NNE)    
Max Wind Speed 14 mph    
Max Gust Speed 21 mph    
Visibility 4 miles    
Events Snow    
Averages and records for this station are not official NWS values.
T = Trace of Precipitation, MM = Missing Value Source: NWS Daily Summary

Daily Weather History Graph

Daily Weather History Graph

Search for Another Location

Airport:

Trip Planner

Search our weather history database for the weather conditions in past years. The results will help you decide how hot, cold, wet, or windy it might be!

Date:

Astronomy

Mar. 25, 2013 Rise Set
Actual Time 6:58 AM EDT 7:20 PM EDT
Civil Twilight 6:31 AM EDT 7:47 PM EDT
Nautical Twilight 5:59 AM EDT 8:19 PM EDT
Astronomical Twilight 5:27 AM EDT 8:52 PM EDT
Moon 5:50 PM EDT 5:40 AM EDT
Length of Visible Light 13h 16m
Length of Day
12h 22m
Waxing Gibbous, 96% of the Moon is Illuminated
Mar 25
Waxing Gibbous
Mar 27
Full
Apr 3
Last Quarter
Apr 10
New
Apr 18
First Quarter

Hourly Weather History & Observations

Time (EDT) Temp. Windchill Dew Point Humidity Pressure Visibility Wind Dir Wind Speed Gust Speed Precip Events Conditions
12:15 AM 35.6 °F 32.8 °F 28.4 °F 75% 29.69 in 10.0 mi SE 3.5 mph - N/A   Mostly Cloudy
12:35 AM 35.6 °F 32.8 °F 28.4 °F 75% 29.68 in 10.0 mi ESE 3.5 mph - N/A   Mostly Cloudy
12:55 AM 35.6 °F 32.8 °F 28.4 °F 75% 29.67 in 10.0 mi East 3.5 mph - N/A   Scattered Clouds
1:15 AM 35.6 °F 29.9 °F 28.4 °F 75% 29.66 in 10.0 mi East 6.9 mph - N/A   Partly Cloudy
1:35 AM 35.6 °F 30.7 °F 26.6 °F 70% 29.64 in 10.0 mi ENE 5.8 mph - N/A   Clear
1:55 AM 35.6 °F - 26.6 °F 70% 29.63 in 10.0 mi Calm Calm - N/A   Clear
2:15 AM 35.6 °F - 26.6 °F 70% 29.62 in 10.0 mi Calm Calm - N/A   Mostly Cloudy
2:35 AM 35.6 °F 32.8 °F 26.6 °F 70% 29.61 in 10.0 mi ENE 3.5 mph - N/A   Mostly Cloudy
2:55 AM 35.6 °F 31.7 °F 26.6 °F 70% 29.59 in 10.0 mi NE 4.6 mph - N/A   Mostly Cloudy
3:15 AM 35.6 °F 30.7 °F 26.6 °F 70% 29.58 in 10.0 mi ENE 5.8 mph - N/A   Overcast
3:35 AM 35.6 °F 29.2 °F 26.6 °F 70% 29.58 in 10.0 mi ENE 8.1 mph - N/A   Overcast
3:55 AM 35.6 °F 27.5 °F 26.6 °F 70% 29.57 in 10.0 mi ENE 11.5 mph 18.4 mph N/A   Overcast
4:15 AM 35.6 °F 28.0 °F 26.6 °F 70% 29.57 in 10.0 mi East 10.4 mph 18.4 mph N/A   Overcast
4:35 AM 35.6 °F 27.1 °F 26.6 °F 70% 29.56 in 10.0 mi East 12.7 mph 20.7 mph N/A   Scattered Clouds
5:15 AM 35.6 °F - 26.6 °F 70% 29.57 in 10.0 mi Calm Calm - N/A   Mostly Cloudy
5:35 AM 35.6 °F 32.8 °F 28.4 °F 75% 29.58 in 5.0 mi NNE 3.5 mph - 0.02 in Snow Light Snow
5:55 AM 33.8 °F 29.6 °F 30.2 °F 87% 29.59 in 1.8 mi North 4.6 mph - 0.21 in Snow Light Snow
6:15 AM 32.0 °F 27.5 °F 32.0 °F 100% 29.59 in 0.8 mi North 4.6 mph - 0.77 in Snow Snow
6:35 AM 32.0 °F 27.5 °F 32.0 °F 100% 29.58 in 1.0 mi North 4.6 mph - 1.40 in Snow Snow
6:55 AM 32.0 °F 28.7 °F 32.0 °F 100% 29.58 in 0.8 mi North 3.5 mph - 2.07 in Snow Snow
7:15 AM 32.0 °F 28.7 °F 32.0 °F 100% 29.57 in 0.5 mi NNE 3.5 mph - 0.60 in Snow Snow
7:35 AM 32.0 °F 28.7 °F 32.0 °F 100% 29.56 in 0.8 mi NNE 3.5 mph - 1.01 in Snow Light Snow
8:15 AM 32.0 °F 27.5 °F 32.0 °F 100% 29.56 in 0.5 mi NE 4.6 mph - 0.35 in Snow Snow
8:35 AM 32.0 °F 27.5 °F 32.0 °F 100% 29.56 in 0.5 mi NNE 4.6 mph - 0.93 in Snow Snow
9:15 AM 33.8 °F 29.6 °F 32.0 °F 93% 29.55 in 0.5 mi NE 4.6 mph - 0.49 in Snow Snow
9:35 AM 33.8 °F 28.6 °F 32.0 °F 93% 29.55 in 0.5 mi NE 5.8 mph - 1.11 in Snow Snow
9:55 AM 33.8 °F 27.7 °F 32.0 °F 93% 29.54 in 0.5 mi NE 6.9 mph - 1.57 in Snow Light Snow
10:15 AM 33.8 °F 27.7 °F 32.0 °F 93% 29.53 in 0.5 mi NE 6.9 mph - 0.22 in Snow Light Snow
10:55 AM 33.8 °F 28.6 °F 32.0 °F 93% 29.52 in 1.0 mi NE 5.8 mph - 0.56 in Snow Light Snow
11:15 AM 33.8 °F 27.7 °F 32.0 °F 93% 29.52 in 1.2 mi NE 6.9 mph 18.4 mph 0.07 in Snow Light Snow
11:35 AM 33.8 °F 27.0 °F 32.0 °F 93% 29.51 in 1.2 mi NE 8.1 mph 18.4 mph 0.17 in Snow Light Snow
11:55 AM 35.6 °F 29.2 °F 32.0 °F 87% 29.51 in 1.8 mi NE 8.1 mph 17.3 mph 0.23 in Snow Light Snow
12:15 PM 35.6 °F 28.6 °F 32.0 °F 87% 29.50 in 3.0 mi NE 9.2 mph 17.3 mph N/A Snow Light Snow
12:35 PM 35.6 °F 29.2 °F 32.0 °F 87% 29.50 in 2.0 mi NE 8.1 mph 18.4 mph 0.04 in Snow Light Snow
12:55 PM 35.6 °F 29.9 °F 32.0 °F 87% 29.49 in 2.5 mi ENE 6.9 mph 18.4 mph 0.09 in Snow Light Snow
1:15 PM 35.6 °F 28.0 °F 32.0 °F 87% 29.49 in 1.0 mi NE 10.4 mph 17.3 mph 0.15 in Snow Light Snow
1:35 PM 33.8 °F 28.6 °F 32.0 °F 93% 29.49 in 1.2 mi NE 5.8 mph - 0.42 in Snow Light Snow
1:55 PM 33.8 °F 28.6 °F 32.0 °F 93% 29.49 in 1.2 mi NE 5.8 mph - 0.59 in Snow Light Snow
2:15 PM 33.8 °F 28.6 °F 32.0 °F 93% 29.49 in 1.2 mi NE 5.8 mph - 0.10 in Snow Light Snow
2:35 PM 33.8 °F 27.7 °F 32.0 °F 93% 29.49 in 0.5 mi NNE 6.9 mph - 0.60 in Snow Snow
2:55 PM 33.8 °F 26.4 °F 33.8 °F 100% 29.49 in 1.0 mi NNE 9.2 mph - 0.94 in Snow Light Snow
3:15 PM 33.8 °F 28.6 °F 33.8 °F 100% 29.50 in 1.2 mi NNE 5.8 mph - 0.11 in Snow Light Snow
3:35 PM 35.6 °F 29.2 °F 33.8 °F 93% 29.50 in 1.2 mi NNE 8.1 mph - 0.26 in Snow Light Snow
3:55 PM 35.6 °F 29.2 °F 33.8 °F 93% 29.50 in 2.0 mi NNE 8.1 mph - 0.36 in Snow Light Snow
4:15 PM 35.6 °F 29.9 °F 33.8 °F 93% 29.51 in 2.5 mi NNE 6.9 mph - 0.02 in Snow Light Snow
4:35 PM 35.6 °F 29.9 °F 33.8 °F 93% 29.51 in 2.5 mi North 6.9 mph - 0.07 in Snow Light Snow
4:55 PM 35.6 °F 29.9 °F 33.8 °F 93% 29.52 in 2.5 mi North 6.9 mph - 0.12 in Snow Light Snow
5:15 PM 35.6 °F 31.7 °F 33.8 °F 93% 29.52 in 4.0 mi NNE 4.6 mph - 0.03 in Snow Light Snow
5:35 PM 35.6 °F 29.9 °F 33.8 °F 93% 29.53 in 7.0 mi North 6.9 mph - 0.04 in Snow Light Snow
5:55 PM 35.6 °F 30.7 °F 33.8 °F 93% 29.53 in 8.0 mi North 5.8 mph - 0.04 in Snow Light Snow
6:15 PM 35.6 °F 29.2 °F 33.8 °F 93% 29.54 in 5.0 mi NNW 8.1 mph - 0.01 in Snow Light Snow
6:35 PM 35.6 °F 29.2 °F 33.8 °F 93% 29.55 in 5.0 mi NW 8.1 mph - 0.02 in Snow Light Snow
7:15 PM 33.8 °F 26.4 °F 33.8 °F 100% 29.57 in 5.0 mi WNW 9.2 mph - N/A Snow Light Snow
7:55 PM 33.8 °F 24.8 °F 33.8 °F 100% 29.59 in 2.5 mi NW 12.7 mph - 0.08 in Snow Light Snow
8:15 PM 33.8 °F 24.3 °F 33.8 °F 100% 29.60 in 3.0 mi NW 13.8 mph - 0.02 in Snow Light Snow
8:35 PM 33.8 °F 24.8 °F 33.8 °F 100% 29.61 in 3.0 mi WNW 12.7 mph - 0.08 in Snow Light Snow
8:55 PM 33.8 °F 24.8 °F 33.8 °F 100% 29.61 in 4.0 mi WNW 12.7 mph - 0.12 in Snow Light Snow
9:15 PM 33.8 °F 24.8 °F 33.8 °F 100% 29.62 in 4.0 mi WNW 12.7 mph - 0.01 in Snow Light Snow
9:35 PM 33.8 °F 24.8 °F 33.8 °F 100% 29.62 in 4.0 mi NW 12.7 mph - 0.03 in Snow Light Snow
9:55 PM 33.8 °F 25.3 °F 33.8 °F 100% 29.63 in 3.0 mi NW 11.5 mph - 0.05 in Snow Light Snow
10:15 PM 33.8 °F 25.3 °F 33.8 °F 100% 29.64 in 2.5 mi NW 11.5 mph - 0.02 in Snow Light Snow
10:35 PM 33.8 °F 25.8 °F 33.8 °F 100% 29.64 in 3.0 mi NW 10.4 mph - 0.03 in Snow Light Snow
10:55 PM 33.8 °F 26.4 °F 33.8 °F 100% 29.64 in 4.0 mi NW 9.2 mph - 0.04 in Snow Light Snow
11:15 PM 33.8 °F 26.4 °F 33.8 °F 100% 29.64 in 5.0 mi NW 9.2 mph - N/A   Mostly Cloudy
11:35 PM 33.8 °F 25.3 °F 33.8 °F 100% 29.65 in 5.0 mi WNW 11.5 mph - N/A   Scattered Clouds
11:55 PM 33.8 °F 26.4 °F 33.8 °F 100% 29.65 in 5.0 mi NW 9.2 mph - N/A   Overcast